Regional Weather Roundup
Issued by NWS

Home | Current Version | Previous Version | Text Only | Print | Product List | Glossary Off
Versions: 1 2 3 4 5 6 7 8 9 10 11 12 13 14 15 16 17 18 19 20 21 22 23 24 25 26 27 28 29 30 31 32 33 34 35 36 37 38 39 40 41 42 43 44 45 46 47 48 49 50

000
ASUS43 KDMX 311807
RWRIA

WEATHER ROUNDUP FOR IOWA
NATIONAL WEATHER SERVICE DES MOINES IA
1200 PM CST SAT JAN 31 2015

NOTE: "FAIR" INDICATES FEW OR NO CLOUDS BELOW 12,000 FEET WITH NO
SIGNIFICANT WEATHER AND/OR OBSTRUCTIONS TO VISIBILITY.

* - THESE STATIONS ARE NOT NWS STATIONS...THUS NOT UNDER NWS
QUALITY CONTROL.  THEY ALSO DO NOT REPORT WEATHER SUCH
AS PRECIPITATION OR FOG.

IAZ001>003-012>014-020>022-031>034-043>046-311900-
   NORTHWEST IOWA

CITY           SKY/WX    TMP DP  RH WIND       PRES   REMARKS
CARROLL *      PTSUNNY   37  36  93 SW16G22   30.12S WCI  28
CHEROKEE *     CLOUDY    32  31  98 NE7       30.12S FOG     WCI  25
DENISON *      MIX PCPN  36  36 100 SW12      30.10F VSB 1   WCI  27
LE MARS *      CLOUDY    34  32  93 NE9       30.10F WCI  26
ORANGE CITY *  CLOUDY    28  27  93 E12       30.10F FOG     WCI  18
SHELDON *      CLOUDY    28  28 100 NE15      30.10F FOG     WCI  17
SIOUX CITY     CLOUDY    38  35  89 S8        30.10F FOG     WCI  32
6HR MIN TEMP:  29; 6HR MAX TEMP:  38;

SPENCER        CLOUDY    29  25  85 NE13      30.13F FOG     WCI  19
6HR MIN TEMP:  25; 6HR MAX TEMP:  29;

STORM LAKE *   FOG       32  32 100 E8        30.11F VSB 3/4 WCI  25
$$

IAZ055>058-069>071-079>083-090>094-311900-
   SOUTHWEST IOWA

CITY           SKY/WX    TMP DP  RH WIND       PRES   REMARKS
ATLANTIC *     LGT SNOW  34  34 100 S7        30.14F WCI  28
AUDUBON *      LGT RAIN  36  32  87 S9        30.14F WCI  29
CLARINDA *     MIX PCPN  37  37 100 S10       30.18F WCI  30
COUNCIL BLFS * LGT SNOW  34  34 100 S12       30.12F WCI  25
CRESTON *      MIX PCPN  36  36 100 S13       30.16F WCI  27
HARLAN  *      LGT SNOW  34  34 100 S9        30.16F VSB 1   WCI  26
LAMONI         LGT RAIN  37  36  96 S8        30.18F FOG     WCI  31
6HR MIN TEMP:  28; 6HR MAX TEMP:  37; 6HR PCP:  0.12;

RED OAK *      LGT RAIN  37  36  93 S15       30.15F WCI  28
SHENANDOAH *   MIX PCPN  37  36  93 S14       30.16F WCI  29
$$

IAZ047>049-059>061-072>074-084-311900-
   CENTRAL IOWA

CITY           SKY/WX    TMP DP  RH WIND       PRES   REMARKS
AMES           CLOUDY    37  35  92 SW8       30.15F FOG     WCI  31
6HR MIN TEMP:  30; 6HR MAX TEMP:  37;

ANKENY *       CLOUDY    39  36  87 SW9       30.16F WCI  33
CHARITON *     MIX PCPN  37  36  93 SW8       30.18F WCI  31
DES MOINES     DRIZZLE   40  34  79 SW9       30.16F WCI  34
6HR MIN TEMP:  36; 6HR MAX TEMP:  40; 6HR PCP: TRACE;

GRINNELL*      DRIZZLE   36  34  93 SW9       30.18F WCI  29
KNOXVILLE *    MOSUNNY   37  34  87 SW8       30.17F WCI  31
MARSHALLTOWN   CLOUDY    37  32  82 SW9       30.14F WCI  30
6HR MIN TEMP:  28; 6HR MAX TEMP:  37;

PELLA *        DRIZZLE   38  34  84 SW7       30.19F WCI  33
PERRY *          N/A     39  36  87 SW10      30.15F WCI  32
$$

IAZ004>006-015-016-023>025-035-036-311900-
   NORTH CENTRAL IOWA

CITY           SKY/WX    TMP DP  RH WIND       PRES   REMARKS
ALGONA *       CLOUDY    30  28  93 NE7       30.14F FOG     WCI  23
CLARION *      CLOUDY    34  34 100 CALM      30.13F
ESTHERVILLE    CLOUDY    26  25  96 NE13      30.13F FOG     WCI  15
6HR MIN TEMP:  23; 6HR MAX TEMP:  26;

FORT DODGE *   CLOUDY    34  30  86 SE3       30.14F
MASON CITY     CLOUDY    32  27  81 NE8       30.14F WCI  25
6HR MIN TEMP:  23; 6HR MAX TEMP:  32;

FOREST CITY *  MOSUNNY   32  27  80 NE6       30.13F WCI  26
IOWA FALLS *   CLOUDY    34  30  86 S6        30.15F WCI  29
$$

IAZ007>011-017>019-026>030-037>042-050>054-066-311900-
   NORTHEAST IOWA

CITY           SKY/WX    TMP DP  RH WIND       PRES   REMARKS
CEDAR RAPIDS   CLOUDY    39  33  79 W8        30.16F WCI  33
6HR MIN TEMP:  26; 6HR MAX TEMP:  39;

CHARLES CITY * PTSUNNY   32  27  80 NE6       30.15F WCI  26
CLINTON *      CLOUDY    36  28  75 W12       30.22F WCI  27
DECORAH *      CLOUDY    30  23  74 CALM      30.14F
DUBUQUE        CLOUDY    33  26  75 SW7       30.16F WCI  27
6HR MIN TEMP:  19; 6HR MAX TEMP:  33;

MONTICELLO *   CLOUDY    37  30  75 W9        30.17F WCI  31
OELWEIN *      PTSUNNY   36  28  75 CALM      30.15F
WATERLOO       CLOUDY    38  30  73 W6        30.15F WCI  33
6HR MIN TEMP:  24; 6HR MAX TEMP:  38;

$$

IAZ064-065-067-068-078-311900-
   EAST CENTRAL IOWA

CITY           SKY/WX    TMP DP  RH WIND       PRES   REMARKS
DAVENPORT      CLOUDY    35  27  72 W9        30.20F WCI  28
6HR MIN TEMP:  27; 6HR MAX TEMP:  35;

IOWA CITY      CLOUDY    37  30  75 SW6       30.21F WCI  32
6HR MIN TEMP:  27; 6HR MAX TEMP:  37;

MT. PLEASANT * DRZL/FOG  32  32 100 SW7       30.23F VSB 1   WCI  26
MUSCATINE *    CLOUDY    37  30  75 S6        30.22F WCI  33
QUAD CITIES    CLOUDY    37  28  70 SW7       30.20F WCI  32
6HR MIN TEMP:  27; 6HR MAX TEMP:  37;

$$

IAZ062-063-075>077-085>089-095>099-311900-
   SOUTHEAST IOWA

CITY           SKY/WX    TMP DP  RH WIND       PRES   REMARKS
BURLINGTON     CLOUDY    35  28  75 SW8       30.23F WCI  29
6HR MIN TEMP:  28; 6HR MAX TEMP:  35;

FAIRFIELD *    CLOUDY    36  30  80 SW8       30.21F WCI  29
FORT MADISON * CLOUDY    36  27  69 SW5       30.24F WCI  32
KEOKUK *       PTSUNNY   37  28  70 SW7       30.23F WCI  32
OSKALOOSA *    RAIN      37  33  85 SW8       30.20F WCI  31
CENTERVILLE *  LGT RAIN  37  37 100 SW6       30.21F WCI  33
OTTUMWA        CLOUDY    39  33  79 SW10      30.20F WCI  32
6HR MIN TEMP:  28; 6HR MAX TEMP:  39; 6HR PCP: TRACE;

WASHINGTON *   CLOUDY    36  36 100 SW10      30.21F FOG     WCI  28
$$

ABBREVIATIONS USED IN REMARKS
   TC - TEMPERATURES IN CELSIUS
  WCI - WIND CHILL INDEX
   HX - HEAT INDEX
  VSB - VISIBILITY
$$




USA.gov is the U.S. government's official web portal to all federal, state and local government web resources and services.